This is the latest recevied weather packets stored in our database for station/object KO4WIL-13. If no packets are shown the sender has not sent any weather packets the latest 1 day(s).
| Time | Temp. | Humidity | Pressure | Rain* | Wind** | Luminosity | Snow |
|---|---|---|---|---|---|---|---|
| 1778001831 | 20.56° C | 48% | 966.5 hPa | 0 mm | 0.89 m/s, 265° | - | - |
| 1778001529 | 20.56° C | 48% | 966.5 hPa | 0 mm | 1.34 m/s, 227° | - | - |
| 1778001227 | 20.56° C | 49% | 966.7 hPa | 0 mm | 0.89 m/s, 242° | - | - |
| 1778000925 | 20.56° C | 48% | 966.8 hPa | 0 mm | 1.34 m/s, 236° | - | - |
| 1778000623 | 21.11° C | 50% | 967 hPa | 0 mm | 0.89 m/s, 241° | - | - |
| 1778000321 | 20.56° C | 48% | 967.1 hPa | 0 mm | 0.89 m/s, 246° | - | - |
| 1778000019 | 20.56° C | 52% | 967.2 hPa | 0 mm | 0.89 m/s, 239° | - | - |
| 1777999717 | 20.56° C | 51% | 967.1 hPa | 0 mm | 0.89 m/s, 228° | - | - |
| 1777999414 | 20.56° C | 51% | 967.2 hPa | 0 mm | 0.89 m/s, 186° | - | - |
| 1777999113 | 20.56° C | 53% | 967.3 hPa | 0 mm | 0.89 m/s, 219° | - | - |
| 1777998810 | 20.56° C | 53% | 967.3 hPa | 0 mm | 0.89 m/s, 228° | - | - |
| 1777998508 | 20.56° C | 56% | 967.4 hPa | 0 mm | 0 m/s | - | - |
| 1777998206 | 20° C | 56% | 967.4 hPa | 0 mm | 0.45 m/s, 195° | - | - |
| 1777997903 | 20° C | 56% | 967.4 hPa | 0 mm | 0 m/s | - | - |
| 1777997601 | 20° C | 56% | 967.4 hPa | 0 mm | 0.89 m/s, 201° | - | - |
| 1777997299 | 19.44° C | 57% | 967.3 hPa | 0 mm | 0.45 m/s, 254° | - | - |
| 1777996997 | 19.44° C | 58% | 967.3 hPa | 0 mm | 0.45 m/s, 211° | - | - |
| 1777996695 | 19.44° C | 57% | 967.4 hPa | 0 mm | 0.45 m/s, 178° | - | - |
| 1777996393 | 19.44° C | 57% | 967.4 hPa | 0 mm | 0.45 m/s, 228° | - | - |
| 1777996091 | 19.44° C | 56% | 967.4 hPa | 0 mm | 0.45 m/s, 210° | - | - |
| 1777995790 | 19.44° C | 59% | 967.4 hPa | 0 mm | 0 m/s | - | - |
| 1777995487 | 18.89° C | 58% | 967.4 hPa | 0 mm | 0.45 m/s, 215° | - | - |
| 1777995185 | 19.44° C | 56% | 967.4 hPa | 0 mm | 0.89 m/s, 240° | - | - |
| 1777994883 | 19.44° C | 57% | 967.4 hPa | 0 mm | 0.89 m/s, 245° | - | - |
| 1777994581 | 19.44° C | 59% | 967.4 hPa | 0 mm | 0.45 m/s, 177° | - | - |
* Rain latest hour (hover to see other rain measurements)
** Current wind speed in m/s (hover to see current wind gust speed)